National Weather Service United States Department of Commerce
 VA/MD/WV/DC Weather Roundup as of 6:00 PM EST Fri Nov 26 2021
Location Sky & Wx Tmp
(°F)
DP
(°F)
RH
(%)
Wind
(mph)
Pres
(in)
Remarks
Washington National, DCPTCLDY391842W18G3029.94SWCI 30
Dulles Intl Airport, VAPTCLDY361848NW23G3329.94RWCI 24
BWI Airport, MDPTCLDY371948W16G2929.89RWCI 28
Charlottesville, VACLEAR391842VRB529.96R
Stafford, VACLEAR381843NW1329.98RWCI 31
Fredericksburg, VACLEAR402044NW1029.93RWCI 33
Staunton, VACLEAR321651NW829.98RWCI 25
Winchester, VACLOUDY321959W16G2329.95RWCI 21
Front Royal, VACLOUDY341955W12G1829.96RWCI 25
Waynesboro, VACLOUDY321752W329.96R
Annapolis, MDCLEAR392148W9G2329.90SWCI 33
Baltimore/Martin Field, MDCLEARN/AN/AN/AW13G2029.91R
Hagerstown, MDMOCLDY341852W22G3029.91RWCI 22
Patuxent River NAS, MDCLEAR422244NW18G3029.91RWCI 34
Cumberland, MDCLOUDY321753W10G2530.04RWCI 23
Leesburg, VACLOUDY362360NW9G1729.97RWCI 29
Martinsburg, WVCLOUDY341647W8G1729.95RWCI 27
Petersburg, WVCLOUDY332675NW530.01RWCI 29
Oakland, MDCLOUDY191479W8G2129.89RWCI 9
Orange, VACLEAR361951W629.95RWCI 31

 Marine Observations  as of 6:00 PM EST Fri Nov 26 2021
Location UTC TIME Air Temp
(°F)
Water Temp
(°F)
Wind
(DIR/SP/G)
Pres
(mb)
Wave&Swell
(HT/PER)
Thomas Pt, MD23003951270/ 18/ 221013.1R
Tolchester Beach, MD22304046300/ 22/ 251012.1R
Cove Point, MD223041270/ 19/ 271012.7R
Gooses Reef, MD22543951310/ 23/ 41996.2F
Baltimore Harbor, MD22303855310/ 11/ 171011.9R
Francis Scott Key Bridge, MD223039280/ 22/ 261011.7R
Washington Channel, DC22303947300/ 14/ 201013.3S
Dahlgren, VA22304149320/ 9/ 161012.9R
Lewisetta, VA22304448340/ 13/ 201012.5R
Solomons Island, MD22304252320/ 10/ 161012.5R
Piney Point, MD2230340/ 21/ 27N/A
Lower Potomac Buoy, MD22544152320/ 29/ 391013.3R
Cambridge, MD22304247300/ 20/ 251011.9R
Bishops Head, MD22304247320/ 21/ 291012.4R
Chesapeake City, MD22304045280/ 10/ 151011.0R

Mesonet Observations



CoCoRaHS



Surface Analysis



Lunar Phase

 

NZUS51 KLWX 262312
HRRLWX

HOURLY OBSERVATIONS AROUND THE LWX CWA
600 PM EST FRI NOV 26 2021

Note: "FAIR" indicates few or no clouds below 12,000 feet
with no significant weather and/or obstructions to visibility.

 * =Non NWS site. Station does not report significant weather 
    and/or obstructions to visibility.

...DOWNTOWN AREAS...
  
CITY           SKY/WX    TMP DP  RH WIND       PRES   REMARKS
WASHINGTON NAT PTCLDY    39  18  42 W18G30    29.94S WCI  30          


...WASHINGTON SUBURBS...
  
CITY           SKY/WX    TMP DP  RH WIND       PRES   REMARKS
DULLES         PTCLDY    36  18  48 NW23G33   29.94R WCI  24          
MANASSAS*      PTCLDY    37  19  48 W12G24    29.97R WCI  29          
LEESBURG*      CLOUDY    36  23  60 NW9G17    29.97R WCI  29          
GAITHERSBURG*  CLEAR     34  18  52 W21G30    29.90S WCI  22          
FT BELVOIR     CLEAR     38  18  44 NW16      29.94R WCI  29          
QUANTICO       CLEAR     40  19  43 NW9       29.97R WCI  34          
COLLEGE PARK*  CLEAR     36  15  41 W10G18    29.92R WCI  29          

...CENTRAL VIRGINIA...
  
CITY           SKY/WX    TMP DP  RH WIND       PRES   REMARKS
CULPEPER*      CLEAR     38  17  43 NW5       29.97R WCI  34          
CHARLOTTESVILL CLEAR     39  18  42 VRB5      29.96R                  
WARRENTON*     CLEAR     37  17  43 NW10      29.95R WCI  30          
ORANGE*        CLEAR     36  19  51 W6        29.95R WCI  31          
GORDONSVILLE*  CLEAR     38  19  45 W5        29.95R WCI  35          
STAFFORD*      CLEAR     38  18  43 NW13      29.98R WCI  31          
FREDERICKSBRG* CLEAR     40  20  44 NW10      29.93R WCI  33          
LOUISA*        CLEAR     38  17  44 W3        29.99R                  
ASHLAND        CLEAR     42  19  39 NW6       29.94R                  
RICHMOND       PTCLDY    44  19  36 NW18      29.92R                  

...NORTHEAST/CENTRAL MARYLAND...
  
CITY           SKY/WX    TMP DP  RH WIND       PRES   REMARKS
BWI AIRPORT    PTCLDY    37  19  48 W16G29    29.89R WCI  28          
ANNAPOLIS      CLEAR     39  21  48 W9G23     29.90S WCI  33          
MARTIN AIRPORT CLEAR    N/A N/A N/A W13G20    29.91R                  
ABERDEEN*      CLOUDY    38  19  46 W14       29.88R WCI  29          
WESTMINSTER*   PTCLDY    36  19  51 W15G26    29.88R WCI  26          
FREDERICK*     CLEAR     36  19  51 W14G21    29.93R WCI  27          
FORT MEADE*    CLEAR     34  23  64 W14G20    29.93S WCI  24          

...SOUTHERN MARYLAND...
  
CITY           SKY/WX    TMP DP  RH WIND       PRES   REMARKS
PATUXENT RIVER CLEAR     42  22  44 NW18G30   29.91R WCI  34          
ST MARYS CITY  CLEAR     44  20  38 NW13G21   29.90R                  
LEONARDTOWN*   CLEAR     41  21  45 NW3G16    29.93R                  

...MARYLAND EASTERN SHORE...
  
CITY           SKY/WX    TMP DP  RH WIND       PRES   REMARKS
SALISBURY      CLEAR     40  21  46 NW14G25   29.88R WCI  32          
CAMBRIDGE*     CLEAR     39  21  48 NW15G28   29.90S WCI  31          
OCEAN CITY     CLEAR     40  22  48 NW15G23   29.87R WCI  32          
EASTON*        CLEAR     39  19  45 NW14G22   29.93R WCI  31          

...SHENANDOAH VALLEY...
  
CITY           SKY/WX    TMP DP  RH WIND       PRES   REMARKS
MARTINSBURG    CLOUDY    34  16  47 W8G17     29.95R WCI  27          
HAGERSTOWN APT MOCLDY    34  18  52 W22G30    29.91R WCI  22          
STAUNTON*      CLEAR     32  16  51 NW8       29.98R WCI  25          
WINCHESTER*    CLOUDY    32  19  59 W16G23    29.95R WCI  21          
FRONT ROYAL*   CLOUDY    34  19  55 W12G18    29.96R WCI  25          
LURAY*         PTCLDY    34  21  60 NW10G22   29.97R WCI  26          
NEW MARKET*    CLOUDY    35  19  51 W8        29.97R WCI  29          
WAYNESBORO*    CLOUDY    32  17  52 W3        29.96R                  

...APPALACHIANS...
  
CITY           SKY/WX    TMP DP  RH WIND       PRES   REMARKS
PETERSBURG WV* CLOUDY    33  26  75 NW5       30.01R WCI  29          
CUMBERLAND*    CLOUDY    32  17  53 W10G25    30.04R WCI  23          
OAKLAND*       CLOUDY    19  14  79 W8G21     29.89R WCI   9          
ELKINS         FLURRIES  27  17  66 W16G23    30.03R WCI  15          
BEDFORD PA*    CLOUDY    30  18  62 NW13G18   29.94R WCI  20          
JOHNSTOWN      LGT SNOW  24  18  77 W24G31    29.87R WCI   8          
ALTOONA        CLOUDY    30  19  63 W20G25    29.90R WCI  17          

...SOUTHERN PENNSYLVANIA/DELAWARE...
  
CITY           SKY/WX    TMP DP  RH WIND       PRES   REMARKS
YORK           CLOUDY    36  18  48 W14G24    29.87R WCI  27          
WILMINGTON     CLOUDY    40  19  43 W20G32    29.84R WCI  30          

...MARINE OBSERVATIONS...
  
STATION/POSITION TIME  TEMP    WIND        PRES
                       AIR SEA DIR/SP/G
                 (UTC) (F)     (DEG/KT/KT) (MB)
THOMAS PT LIGHT  2300   39 51  270/ 18/ 22 1013.1R
TOLCHESTER       2230   40 46  300/ 22/ 25 1012.1R
COVE POINT       2230   41     270/ 19/ 27 1012.7R
GOOSES REEF      2254   39 51  310/ 23/ 41  996.2F
BALT HARBOR      2230   38 55  310/ 11/ 17 1011.9R
BALT KEY BRIDGE  2230   39     280/ 22/ 26 1011.7R
WASH DC CHANNEL  2230   39 47  300/ 14/ 20 1013.3S
DAHLGREN         2230   41 49  320/  9/ 16 1012.9R
LEWISETTA        2230   44 48  340/ 13/ 20 1012.5R
SOLOMONS ISLAND  2230   42 52  320/ 10/ 16 1012.5R
PINEY POINT      2230          340/ 21/ 27   N/A
POTOMAC BUOY     2254   41 52  320/ 29/ 39 1013.3R
CAMBRIDGE PIER   2230   42 47  300/ 20/ 25 1011.9R
BISHOPS HEAD     2230   42 47  320/ 21/ 29 1012.4R
CHESAPEAKE CITY  2230   40 45  280/ 10/ 15 1011.0R

  

 

For past hours' observations from around the NWS Sterling Area, please visit:
https://forecast.weather.gov/product.php?site=LWX&issuedby=LWX&product=RWR&format=CI&version=1